Flag for U.S.A. Weather past 2 weeks in Sunnyvale, California, U.S.A.

Now
75 °F

Sunny.


Feels Like: 77 °F
Forecast: 62 / 81 °F
Wind: 12 mph from North

Location: Moffett Field

Current Time: Jul 4, 2015 at 1:49:58 PM

Latest Report: Jul 4, 2015 at 12:56 PM


Visibility: 10 mi

Pressure: 29.87 "Hg

Humidity: 62%

Dew point: 61 °F

Location of SunnyvaleLocation

Historic Weather in Sunnyvale — Graph

°F

Sunnyvale temperature yesterday

Maximum temperature yesterday: 78 °F (at 1:56 PM)
Minimum temperature yesterday: 63 °F (at 1:56 AM)
Average temperature yesterday: 68 °F

Past Weeks' High & Low Weather Summary

 TemperatureHumidityPressure
High89 °F (Jun 30, 3:56 PM)90% (Jun 21, 12:56 AM)30.08 "Hg (Jun 21, 12:56 AM)
Low55 °F (Jun 22, 4:56 AM)31% (Jun 30, 3:56 PM)29.81 "Hg (Jun 30, 5:56 PM)
Average67 °F70%29.95 "Hg
* Reported Jun 19 12:56 PM — Jul 4 12:56 PM, Sunnyvale, Weather by CustomWeather, © 2015

Note: Actual official high and low records may vary slightly from our data, if they occured in-between our weather recording intervals... More about our weather records

Advertising

Sunnyvale weather history for previous 24 hours

 ConditionsComfort  
Time TempWeatherWind HumidityBarometerVisibility
12:56 PM
Sat, Jul 4
75 °FSunny.12 mph62%29.87 "Hg10 mi
11:56 AM75 °FSunny.9 mph64%29.87 "Hg10 mi
10:56 AM72 °FSunny.3 mph66%29.87 "Hg10 mi
9:56 AM70 °FSunny.7 mph71%29.88 "Hg10 mi
8:56 AM66 °FOvercast.3 mph78%29.89 "Hg10 mi
7:56 AM66 °FOvercast.5 mph78%29.89 "Hg10 mi
6:56 AM64 °FOvercast.No wind84%29.88 "Hg10 mi
5:56 AM64 °FOvercast.3 mph84%29.89 "Hg10 mi
4:56 AM64 °FLow clouds.No wind84%29.89 "Hg10 mi
3:56 AM64 °FLow clouds.3 mph87%29.90 "Hg10 mi
2:56 AM64 °FLow clouds.No wind87%29.90 "Hg10 mi
1:56 AM64 °FLow clouds.6 mph87%29.90 "Hg10 mi
12:56 AM64 °FLow clouds.5 mph87%29.90 "Hg10 mi
11:56 PM
Fri, Jul 3
64 °FLow clouds.6 mph87%29.91 "Hg10 mi
10:56 PM64 °FLow clouds.5 mph87%29.92 "Hg10 mi
9:56 PM64 °FPassing clouds.7 mph87%29.90 "Hg10 mi
8:56 PM65 °FSunny.12 mph85%29.90 "Hg10 mi
7:56 PM68 °FSunny.16 mph78%29.88 "Hg10 mi
6:56 PM71 °FSunny.17 mph73%29.87 "Hg10 mi
5:56 PM71 °FSunny.14 mph71%29.88 "Hg10 mi
4:56 PM74 °FSunny.15 mph64%29.88 "Hg10 mi
3:56 PM75 °FSunny.13 mph62%29.89 "Hg10 mi
2:56 PM77 °FSunny.14 mph58%29.90 "Hg10 mi
1:56 PM78 °FSunny.13 mph56%29.92 "Hg10 mi
Weather by CustomWeather, © 2015

See weather overviewHow to use our weather pages